EW3707 Weather Reports


Display with metric or nautical units.
time (UTC)temp
F
wind
direction
speed
MPH
gust
MPH
rain 1hr
in
rain 24hr
in
rain mn
in
humidity
%
barometer
mb
20260902062016 71 0.0 0.0 0.00 0.00 0.00 22 1013.0
20260902061036 71 0.0 1.0 0.00 0.00 0.00 26 1013.2
20260902060016 70 0.0 0.0 0.00 0.00 0.00 26 1013.3
20260902055016 70 0.0 0.0 0.00 0.00 0.00 27 1013.1
20260902054016 70 0.0 0.0 0.00 0.00 0.00 29 1013.1
20260902053016 70 0.0 0.0 0.00 0.00 0.00 30 1013.3
20260902052036 70 0.0 0.0 0.00 0.00 0.00 25 1013.6
20260902051036 70 0.0 0.0 0.00 0.00 0.00 22 1013.5
20260902050016 70 0.0 0.0 0.00 0.00 0.00 27 1013.6
20260902045016 70 0.0 0.0 0.00 0.00 0.00 28 1013.5
20260902044016 70 0.0 0.0 0.00 0.00 0.00 33 1013.3
20260902043016 70 0.0 0.0 0.00 0.00 0.00 33 1013.2
20260902042016 70 0.0 0.0 0.00 0.00 0.00 38 1013.4
20260902041017 70 0.0 0.0 0.00 0.00 0.00 47 1013.3
20260902040017 71 0.0 0.0 0.00 0.00 0.00 52 1013.2
20260902035016 71 0.0 0.0 0.00 0.00 0.00 58 1013.2
20260902034017 71 0.0 0.0 0.00 0.00 0.00 61 1013.4
20260902033017 72 0.0 0.0 0.00 0.00 0.00 66 1013.3
20260902032017 72 0.0 0.0 0.00 0.00 0.00 68 1013.1
20260902031056 73 0.0 0.0 0.00 0.00 0.00 69 1013.3
20260902030017 73 0.0 0.0 0.00 0.00 0.00 71 1013.2
20260902025017 74 0.0 0.0 0.00 0.00 0.00 72 1013.2
20260902024017 74 0.0 0.0 0.00 0.00 0.00 73 1013.1
20260902023016 75 0.0 0.0 0.00 0.00 0.00 73 1013.2
20260902022017 75 0.0 0.0 0.00 0.00 0.00 74 1013.2
20260902021036 76 0.0 0.0 0.00 0.00 0.00 74 1013.2
20260902020037 76 0.0 0.0 0.00 0.00 0.00 73 1013.1
20260902015017 76 0.0 0.0 0.00 0.00 0.00 73 1012.8
20260902014056 77 0.0 0.0 0.00 0.00 0.00 72 1012.8
20260902013016 78 0.0 0.0 0.00 0.00 0.00 71 1012.6
20260902012017 79 0.0 0.0 0.00 0.00 0.00 69 1012.7
20260902011016 80 0.0 0.0 0.00 0.00 0.00 67 1012.6
20260902010016 80 0.0 0.0 0.00 0.00 0.00 65 1012.5
20260902005036 81 0.0 0.0 0.00 0.00 0.00 64 1012.4
20260902004016 81 0.0 1.0 0.00 0.00 0.00 64 1012.5
20260902003016 82 0.0 0.0 0.00 0.00 0.00 62 1012.6
20260902002017 83 0.0 0.0 0.00 0.00 0.00 61 1012.5
20260902001017 83 0.0 1.0 0.00 0.00 0.00 60 1012.6
20260902000016 83 0.0 2.0 0.00 0.00 0.00 60 1012.5
20260901235017 84 0.0 3.0 0.00 0.00 0.00 58 1012.5
20260901234016 85 0.0 1.0 0.00 0.00 0.00 57 1012.5
20260901233036 85 0.0 0.0 0.00 0.00 0.00 57 1012.6
20260901232036 85 0.0 3.0 0.00 0.00 0.00 54 1012.5
20260901231016 86 0.0 2.0 0.00 0.00 0.00 55 1012.4
20260901230016 86 248 1.0 5.0 0.00 0.00 0.00 54 1012.5
20260901225017 86 0.0 2.0 0.00 0.00 0.00 55 1012.4
20260901224016 86 248 1.0 5.0 0.00 0.00 0.00 54 1012.2
20260901223036 87 0.0 4.0 0.00 0.00 0.00 54 1012.3
20260901222017 87 248 1.0 4.0 0.00 0.00 0.00 54 1012.3
20260901221016 88 0.0 2.0 0.00 0.00 0.00 52 1012.2
20260901220016 88 0.0 2.0 0.00 0.00 0.00 52 1012.4
20260901215036 88 0.0 1.0 0.00 0.00 0.00 53 1012.4
20260901214017 88 0.0 1.0 0.00 0.00 0.00 52 1012.4
20260901213056 88 248 1.0 4.0 0.00 0.00 0.00 51 1012.5
20260901212016 88 0.0 3.0 0.00 0.00 0.00 50 1012.5
20260901211017 88 248 1.0 2.0 0.00 0.00 0.00 49 1012.4
20260901210037 87 0.0 1.0 0.00 0.00 0.00 50 1012.7
20260901205016 88 225 1.0 4.0 0.00 0.00 0.00 49 1012.6
20260901204016 88 248 1.0 4.0 0.00 0.00 0.00 46 1013.0
20260901203016 89 248 1.0 5.0 0.00 0.00 0.00 46 1013.0
20260901202016 89 248 2.0 6.0 0.00 0.00 0.00 46 1012.8
20260901201016 89 248 3.0 7.0 0.00 0.00 0.00 45 1012.7
20260901200117 88 248 1.0 5.0 0.00 0.00 0.00 50 1012.7
20260901195016 89 0.0 8.0 0.00 0.00 0.00 51 1012.9
20260901194036 88 248 1.0 4.0 0.00 0.00 0.00 50 1013.0
20260901193016 88 0.0 2.0 0.00 0.00 0.00 51 1013.1
20260901192016 88 248 1.0 5.0 0.00 0.00 0.00 49 1013.2
20260901191016 90 0.0 1.0 0.00 0.00 0.00 47 1013.2
20260901190016 89 248 1.0 6.0 0.00 0.00 0.00 50 1013.4
20260901185016 88 248 1.0 6.0 0.00 0.00 0.00 48 1013.5
20260901184036 89 0.0 3.0 0.00 0.00 0.00 48 1013.7
20260901183016 88 248 1.0 5.0 0.00 0.00 0.00 48 1013.7
20260901182016 88 225 1.0 5.0 0.00 0.00 0.00 47 1013.7
20260901181016 88 225 2.0 5.0 0.00 0.00 0.00 46 1013.8
20260901180016 88 225 2.0 6.0 0.00 0.00 0.00 46 1013.8
20260901175016 87 248 2.0 5.0 0.00 0.00 0.00 50 1013.9
20260901174018 88 248 1.0 4.0 0.00 0.00 0.00 52 1014.0
20260901173017 86 203 3.0 8.0 0.00 0.00 0.00 53 1014.2
20260901172016 86 203 3.0 6.0 0.00 0.00 0.00 55 1014.2
20260901171016 86 248 3.0 6.0 0.00 0.00 0.00 56 1014.3
20260901170017 86 225 1.0 2.0 0.00 0.00 0.00 55 1014.2
20260901165016 84 225 1.0 3.0 0.00 0.00 0.00 56 1014.3
20260901164016 84 270 1.0 4.0 0.00 0.00 0.00 57 1014.2
20260901163016 84 248 1.0 5.0 0.00 0.00 0.00 57 1014.3
20260901162016 83 0.0 3.0 0.00 0.00 0.00 59 1014.4
20260901161016 83 248 2.0 5.0 0.00 0.00 0.00 61 1014.5
20260901160036 83 158 1.0 4.0 0.00 0.00 0.00 62 1014.6
20260901155016 81 248 1.0 4.0 0.00 0.00 0.00 64 1014.5
20260901154016 82 248 1.0 4.0 0.00 0.00 0.00 62 1014.8
20260901153016 81 0.0 2.0 0.00 0.00 0.00 66 1014.8
20260901152017 80 0.0 1.0 0.00 0.00 0.00 70 1014.8
20260901151036 78 0.0 1.0 0.00 0.00 0.00 73 1014.8
20260901150016 77 248 1.0 3.0 0.00 0.00 0.00 74 1015.0
20260901145016 76 248 1.0 3.0 0.00 0.00 0.00 73 1014.9
20260901144016 75 248 1.0 4.0 0.00 0.00 0.00 70 1014.9
20260901143016 74 0.0 3.0 0.00 0.00 0.00 64 1014.9
20260901142016 73 0.0 4.0 0.00 0.00 0.00 53 1014.9
20260901141016 72 0.0 0.0 0.00 0.00 0.00 44 1014.9
20260901140016 72 248 2.0 4.0 0.00 0.00 0.00 53 1015.0
20260901135016 72 0.0 2.0 0.00 0.00 0.00 34 1014.8
20260901134016 71 203 1.0 3.0 0.00 0.00 0.00 25 1014.7
20260901133016 71 0.0 2.0 0.00 0.00 0.00 1 1014.7
20260901132016 70 0.0 1.0 0.00 0.00 0.00 1 1014.8
20260901131016 69 0.0 0.0 0.00 0.00 0.00 1 1014.6
20260901130016 69 0.0 0.0 0.00 0.00 0.00 1 1014.6
20260901125016 67 0.0 0.0 0.00 0.00 0.00 1 1014.5
20260901124016 67 0.0 0.0 0.00 0.00 0.00 1 1014.5
20260901123017 66 0.0 0.0 0.00 0.00 0.00 1 1014.4
20260901122036 65 0.0 0.0 0.00 0.00 0.00 1 1014.2
20260901121016 65 0.0 0.0 0.00 0.00 0.00 1 1014.2
20260901120016 65 0.0 0.0 0.00 0.00 0.00 1 1014.1
20260901115036 65 0.0 0.0 0.00 0.00 0.00 1 1014.2
20260901114016 65 0.0 0.0 0.00 0.00 0.00 1 1014.2
20260901113016 64 0.0 0.0 0.00 0.00 0.00 1 1014.1
20260901112016 64 0.0 0.0 0.00 0.00 0.00 1 1014.0
20260901111036 64 0.0 0.0 0.00 0.00 0.00 1 1013.8
20260901110016 64 0.0 0.0 0.00 0.00 0.00 1 1013.6
20260901105016 65 0.0 0.0 0.00 0.00 0.00 1 1013.5
20260901104016 65 0.0 0.0 0.00 0.00 0.00 1 1013.4
20260901103016 65 0.0 0.0 0.00 0.00 0.00 1 1013.6
20260901102016 65 0.0 0.0 0.00 0.00 0.00 1 1013.4
20260901101016 65 0.0 0.0 0.00 0.00 0.00 1 1013.6
20260901100016 65 0.0 0.0 0.00 0.00 0.00 1 1013.5
20260901095016 66 0.0 0.0 0.00 0.00 0.00 1 1013.5
20260901094016 66 0.0 0.0 0.00 0.00 0.00 1 1013.6
20260901093016 66 0.0 0.0 0.00 0.00 0.00 1 1013.5
20260901092016 66 0.0 0.0 0.00 0.00 0.00 1 1013.4
20260901091016 66 0.0 0.0 0.00 0.00 0.00 1 1013.4
20260901090016 66 0.0 0.0 0.00 0.00 0.00 1 1013.4
20260901085016 66 0.0 0.0 0.00 0.00 0.00 1 1013.5
20260901084016 66 0.0 0.0 0.00 0.00 0.00 1 1013.3
20260901083016 66 0.0 0.0 0.00 0.00 0.00 1 1013.2
20260901082016 66 0.0 0.0 0.00 0.00 0.00 1 1013.3
20260901081016 67 0.0 0.0 0.00 0.00 0.00 1 1013.6
20260901080016 67 0.0 0.0 0.00 0.00 0.00 1 1013.6
20260901075016 67 0.0 1.0 0.00 0.00 0.00 1 1013.7
20260901074016 66 0.0 0.0 0.00 0.00 0.00 1 1013.7
20260901073016 67 0.0 0.0 0.00 0.00 0.00 1 1013.6
20260901072016 67 0.0 0.0 0.00 0.00 0.00 1 1013.6
20260901071016 67 0.0 0.0 0.00 0.00 0.00 1 1013.5
20260901070016 67 0.0 0.0 0.00 0.00 0.00 1 1013.3
20260901065016 67 0.0 0.0 0.00 0.00 0.00 1 1013.3
20260901064016 68 0.0 0.0 0.00 0.00 0.00 1 1013.4
20260901063016 68 0.0 0.0 0.00 0.00 0.00 1 1013.2